Lid_Strength_Index
14 16 19 18 17 17 17 19 18 17 14 15 16 16 14 13 13 13 13 12 13 12 12 12 13 13 13 14 13 13 13 12 11 9 7 6 8 9 9 9 9 9 9 8
15 18 16 14 15 16 17 18 18 16 15 16 16 16 15 14 14 13 13 13 13 13 13 13 14 14 14 14 14 14 13 13 12 10 9 7 8 8 9 9 10 10 10 9
17 16 14 14 16 17 18 18 18 17 15 16 16 17 16 14 14 13 13 12 12 13 13 13 14 15 15 15 15 14 14 14 13 13 10 9 9 10 10 11 11 11 11 10
16 14 14 15 16 17 18 16 16 16 18 19 17 20 18 16 15 15 13 13 13 13 13 13 14 15 16 15 15 15 15 15 14 14 13 13 13 13 12 11 11 12 12 12
16 16 16 16 16 16 16 15 16 17 18 19 18 19 17 16 15 14 14 14 13 13 13 14 14 14 15 15 15 15 15 15 15 15 15 15 15 14 13 12 13 12 12 12
15 14 15 16 15 15 14 16 16 17 18 20 19 19 18 17 15 15 14 14 14 14 14 14 14 14 15 15 16 16 15 15 15 16 16 16 16 16 16 16 16 15 14 14
15 15 15 15 16 15 15 18 20 21 21 21 18 19 17 15 14 14 15 14 14 14 14 14 15 15 15 16 16 16 16 16 16 16 17 17 16 16 16 17 17 17 16 16
19 18 16 15 16 17 17 18 20 22 23 21 18 20 17 15 15 15 14 14 14 14 14 15 15 15 15 15 16 16 16 17 17 17 16 16 15 16 15 16 16 16 16 17
18 17 15 15 15 15 17 18 17 20 21 22 20 18 15 15 14 14 14 14 14 14 15 15 15 15 15 16 16 16 16 17 17 17 17 16 16 15 15 15 15 15 15 14
16 18 15 15 15 16 17 15 18 19 21 23 21 20 18 16 15 14 14 14 13 13 14 15 15 15 15 16 16 16 16 16 16 16 16 16 15 15 14 14 14 14 15 14
16 17 16 15 17 17 17 18 18 18 19 21 23 20 15 14 13 13 14 13 13 13 13 14 15 15 16 16 17 17 17 17 17 16 16 15 14 13 12 13 13 13 14 14
16 17 20 16 15 17 17 17 17 19 19 18 19 18 14 14 13 13 14 13 13 13 13 14 14 16 17 17 18 18 18 17 17 16 16 15 14 12 13 13 13 13 14 14
15 17 19 18 17 16 19 17 16 15 15 18 18 18 14 15 14 14 14 13 13 13 14 14 16 17 18 18 18 18 18 17 16 14 14 14 13 14 13 12 13 13 13 13
11 16 16 18 16 15 17 15 15 14 17 17 17 15 13 12 13 14 13 13 14 14 15 15 16 17 17 18 18 18 17 15 13 13 14 14 13 12 12 12 13 13 13 14
14 18 17 15 14 14 14 14 13 15 14 16 14 15 12 13 13 14 13 14 15 16 16 16 16 17 18 19 18 16 14 14 15 15 14 13 12 12 12 12 12 13 13 14
16 17 17 19 15 15 16 14 14 14 13 13 13 14 12 14 13 13 16 17 17 16 17 17 17 18 19 19 17 15 14 15 14 13 13 12 12 12 12 12 12 13 13 14
16 16 17 17 17 16 17 15 14 14 14 14 16 14 14 15 14 15 16 17 17 18 18 18 18 19 19 17 15 15 15 14 13 12 12 12 12 13 13 13 13 14 14 14
15 15 15 17 16 20 15 14 13 14 14 14 14 14 14 14 14 18 17 17 18 18 18 18 18 18 18 17 15 15 14 13 12 12 12 12 12 13 13 13 14 14 14 15
11 12 16 17 17 15 13 14 15 15 15 14 14 14 14 14 15 17 16 17 18 18 18 18 18 18 17 16 15 14 13 13 12 13 12 12 13 14 14 14 14 14 15 15
15 12 14 16 18 20 17 15 14 13 17 14 13 14 14 14 16 16 17 17 18 18 17 17 17 17 17 16 15 15 14 13 14 13 13 13 14 14 15 15 15 15 15 15
17 15 16 15 17 15 15 14 12 17 16 13 12 13 15 16 15 16 17 18 18 18 18 18 19 20 18 17 16 15 14 15 14 13 14 14 14 15 15 15 15 16 16 16
15 17 17 15 17 18 13 12 14 13 12 13 14 15 16 15 15 15 17 18 17 18 18 18 20 19 17 17 16 15 15 14 15 15 15 16 16 15 15 15 15 15 17 18
16 13 14 14 14 12 12 12 13 13 13 15 15 15 15 16 16 16 17 18 19 20 18 17 18 18 16 16 15 16 16 16 16 17 17 17 16 15 15 16 16 17 18 20
12 10 13 13 12 11 13 15 15 15 16 15 16 16 16 17 17 18 19 19 20 19 19 17 18 18 17 16 15 17 17 17 18 18 19 18 17 17 17 16 16 18 20 20
11 10 11 12 12 14 15 15 16 16 16 17 17 18 18 18 20 19 20 19 18 18 17 16 17 17 18 18 18 18 17 18 18 19 18 19 18 18 18 18 19 18 18 17
17 18 17 16 16 16 17 16 15 17 17 17 17 19 19 18 19 18 19 18 18 17 16 17 18 18 19 19 19 19 18 18 20 20 18 20 20 21 20 21 21 15 12 11